Location: Sungai Apap
(2.6167°N, 113.3833°E)
Time: 14:24:25
(UTC+00:00)

BlueWalker 3 - Pass Details

Date: 25 May 2024
Orbit: 481 x 494 km, 53.2° (Epoch: 11 June)

Event Time Altitude Azimuth Distance (km) Brightness Sun altitude
Exits shadow 20:47:13 19° 333° (NNW) 1,181 3.7 -21.3°
Drops below altitude 10° 20:48:59 10° 358° (N) 1,642 4.8 -20.9°
Sets 20:51:28 0° 13° (NNE) 2,518 6.0 -20.4°
